Regional Weather Roundup
Issued by NWS

Home | Current Version | Previous Version | Text Only | Print | Product List | Glossary Off
Versions: 1 2 3 4 5 6 7 8 9 10 11 12 13 14 15 16 17 18 19 20 21 22 23 24 25 26 27 28 29 30 31 32 33 34 35 36 37 38 39 40 41 42 43 44 45 46 47 48 49 50

000
ASUS43 KFSD 251502
RWRSD

WEATHER ROUNDUP FOR SOUTH DAKOTA
NATIONAL WEATHER SERVICE SIOUX FALLS SD
1000 AM CDT SAT MAR 25 2017

NOTE: "FAIR" INDICATES FEW OR NO CLOUDS BELOW 12,000 FEET WITH NO
SIGNIFICANT WEATHER AND/OR OBSTRUCTIONS TO VISIBILITY.


SDZ001>005-009-010-012>017-251600-
NORTHWEST AND NORTH CENTRAL SOUTH DAKOTA

CITY           SKY/WX    TMP DP  RH WIND       PRES   REMARKS
BUFFALO          N/A     41  33  73 S8        29.85R
FAITH            N/A     35  33  92 S24       29.95S WCI  23
MOBRIDGE       CLOUDY    34  30  85 S14       30.05R WCI  25
$$

SDZ012>016-024>037-041>051-057-063-072>074-251600-
SOUTHWEST AND SOUTH CENTRAL SOUTH DAKOTA

CITY           SKY/WX    TMP DP  RH WIND       PRES   REMARKS
RAPID CTY ARPT CLOUDY    46  31  55 S16       29.94S
PIERRE         CLOUDY    32  32 100 SE12      30.08R FOG     WCI  23
CUSTER         CLOUDY    43  26  51 VRB3      29.96F
ELLSWORTH AFB  CLOUDY    46  31  56 S16       29.92F
PHILIP         MOSUNNY   37  34  89 E7        30.01R
PINE RIDGE     SUNNY     49  33  54 S17       29.98F
SPEARFISH      FAIR      52  32  46 CALM      29.92S
WINNER         CLOUDY    34  32  92 SE18      30.07F FOG     WCI  23
$$

SDZ004>011-016>023-039-040-251600-
NORTHEAST SOUTH DAKOTA

CITY           SKY/WX    TMP DP  RH WIND       PRES   REMARKS
ABERDEEN       CLOUDY    33  29  85 SE9       30.14S WCI  25
WATERTOWN      CLOUDY    31  30  96 E10       30.13R FOG     WCI  22
BROOKINGS      CLOUDY    33  32  96 E10       30.12F WCI  25
SISSETON         N/A     34  32  92 S16       30.16S WCI  24
$$

SDZ017-020-022-023-036>040-048>070-251600-
SOUTHEAST SOUTH DAKOTA

CITY           SKY/WX    TMP DP  RH WIND       PRES   REMARKS
SIOUX FALLS    CLOUDY    38  35  89 NE15      30.10F
HURON          CLOUDY    34  31  88 E9        30.13F WCI  27
CHAMBERLAIN    CLOUDY    35  33  96 E8        30.11F WCI  28
MITCHELL       CLOUDY    34  32  92 E8        30.14F WCI  27
YANKTON        CLOUDY    37  34  87 NE13      30.10S
$$

ABBREVIATIONS USED IN REMARKS
   TC - TEMPERATURE IN CELSIUS
  WCI - WIND CHILL INDEX
   HX - HEAT INDEX
  VSB - VISIBILITY





USA.gov is the U.S. government's official web portal to all federal, state and local government web resources and services.